STARLINK-33890, 65332

Orbit data source: Space-Track

STARLINK-33890, 65332 is a payload satellite owned by SpaceX/Seattle (US) in LEO that was launched on Wed, 27 Aug 2025 UTC via an FALCON 9 launch vehicle from the Air Force Eastern Test Range (AFETR). Payload-class satellites include a variety of spacecraft equipped with specific instruments for various scientific and technological missions. These include communications satellites like Starlink; space stations such as the ISS; scientific satellites like the Hubble; Earth observation satellites from companies like Planet Labs, Umbra, and HawkEye 360; GPS; miniature CubeSats for education and research; and military/defense satellites.

Loading next visibility...
Identifier
65332, 2025-189K
Orbit
LEO
Country
Flag of USUS
Related business
Manufacturer
SpaceX/Seattle
Mission
Operational Commercial Communications
Bus & Motor
STARLINK V2MO, Unknown motor
Mass
575 kg wet, ~530 kg dry
Launch date (UTC)
2025-08-27 (10 months ago)
Launch vehicle
FALCON 9
Launch site
Air Force Eastern Test Range (AFETR)
Object type
Payload
Rocket body
Debris
Shape & HBR
Box + 2 Pan, 17.7 m
Radar Cross Section
36.964 m², Large (>1 m²)

Expand to show TLE details & history
Last TLE update: 17 hours ago

TLE from 17 hours ago
0 STARLINK-33890
1 65332U 25189K   26171.15507640  .00016127  00000-0  52996-3 0  9990
2 65332  53.1603  90.1602 0001266  85.1143 275.0003 15.31722139 45600
Epoch: 2026-06-20T03:43Z
TLE epoch observation values (Epoch: 2026-06-20T03:43:18.600Z)
Latitude
-0.00004°
Longitude
125.95891°
Altitude
471.499 km
Speed
7.632 km/s
True Right ascension
06h 00m 38s
True Declination
0° 00' 00"
Sunlit
Object was in daylight at epoch
Visualization orbit readout
Latitude
Unknown
Longitude
Unknown
Altitude
Unknown
Speed
Unknown
Apparent Right ascension
Unknown
Apparent Declination
Unknown
Sunlit
N/A
Visualization observer readout
Local Sidereal Time
07:14:21
Azimuth
Unknown
Elevation
Unknown
Doppler factor
Unknown
Orbital elements
Apogee altitude
471.798 km
Perigee altitude
470.063 km
Semi-major axis
6,849.068 km
Eccentricity
0.00013
Inclination
53.1603°
RAAN
90.1602°
Arg. of periapsis
85.1143°
True anomaly
274.98585°
Mean anomaly
275.0003°
Eccentric anomaly
274.99307°
Mean motion
3.82909 °/min
Orbital period
94.02 mins
BSTAR
0.00052996
Loading maneuver chart data...
Computing Atmospheric mass density...
Loading historical data...
Loading historical data...
Loading historical data...
Loading historical data...
Loading historical data...
Loading historical data...
Loading historical data...

Documentation

Showing up to 5 results
|